Weather in Pierre

United States     44°21′46″N   100°19′51″W
temp.,
°C
wind,
m/s
gust,
m/s
humid.,
%
clouds,
%
prec.,
mm/h
press.,
hPa
HPBL,
m
18 may, tue
tue1801:00+13se5119687 0.0 1015276
04:00+12sse5109673 0.0 1014241
07:00+11sse4109628 0.0 1014253
10:00+18sse787474 0.0 1013756
13:00+21s8962100 0.1 10111403
16:00+22s785972 0.1 10101435
19:00+22sse786153 0.1 10081136
22:00+16se5118725 0.0 1008219
19 may, wed
wed1901:00+15sse51290100 0.0 1009314
04:00+14sse411925 0.0 1008241
07:00+14sse499135 0.0 1009216
10:00+21s456490 0.0 1009645
13:00+26s444472 0.0 10081452
16:00+27s5538100 0.0 10072179
19:00+22se81163100 0.0 1007604
22:00+18se61182100 0.0 1007321
20 may, thu
thu2001:00+17ese4792100 0.4 1008158
04:00+16se349296 0.0 100883
07:00+16sse47839 0.0 1008129
10:00+23sse68575 0.0 1008646
13:00+27sse78425 0.0 10071742
16:00+28sse683883 0.0 10062596
19:00+26sse912481 0.0 1006966
22:00+21sse9156580 0.0 1008617
21 may, fri
fri2101:00+19se8157778 0.0 1010536
04:00+17sse6139410 0.0 1010381
07:00+17sse614913 0.1 1012479
10:00+22sse897198 0.1 1012904
13:00+24sse896452 0.1 10121129
16:00+28sse81049100 0.0 10111721
19:00+28ese79544 0.0 1009889
22:00+24ssw91671100 1.0 1012810
22 may, sat
sat2201:00+18sse2284100 2.8 101435
04:00+17nw1192100 0.9 101611
07:00+17nnw1292100 1.8 101687
10:00+19nw3284100 0.8 1017503
13:00+19nw4480100 1.1 1018650
16:00+20nnw5475100 1.8 1016536
19:00+20n3475100 2.6 1016551
22:00+17n5992100 6.4 1017348